Location: Newark
(39.6867°N, 100.6772°W)
Time: 01:30:25
(UTC+00:00)

ISS - Pass Details

Date: 23 September 2019
Orbit: 411 x 421 km, 51.6° (Epoch: 21 October)

Event Time Altitude Azimuth Distance (km) Brightness Sun altitude
Rises 03:03:47 0° 285° (WNW) 2,341 1.3 -27.6°
Reaches altitude 10° 03:06:40 10° 312° (NW) 1,480 -0.1 -28.1°
Enters shadow 03:07:57 13° 335° (NNW) 1,290 -0.7 -28.3°
